Worcester, MA

11:44 AM EDT on May 26, 2017 (GMT -0400)
Worcester Regional

Weather History for KORH - March, 2013

Change the Weather History Date:

Thursday, March 21, 2013

  Actual Average Record
Temperature  
Mean Temperature 28 °F 36 °F  
Max Temperature 34 °F 45 °F 73 °F (2012)
Min Temperature 22 °F 28 °F 4 °F (1986)
Degree Days  
Heating Degree Days 37 29  
Month to date heating degree days 690 671  
Since 1 July heating degree days 5127 5508  
Cooling Degree Days 0 0  
Month to date cooling degree days 0 0  
Year to date cooling degree days 0 0  
Moisture  
Dew Point 16 °F    
Average Humidity 64    
Maximum Humidity 85    
Minimum Humidity 43    
Precipitation  
Precipitation T in 0.15 in 1.96 in (1974)
Month to date precipitation 2.93 2.74  
Year to date precipitation 9.81 9.46  
Sea Level Pressure  
Sea Level Pressure 29.68 in    
Wind  
Wind Speed 7 mph (West)    
Max Wind Speed 17 mph    
Max Gust Speed 21 mph    
Visibility 9 miles    
Events Snow    
T = Trace of Precipitation, MM = Missing Value Source: NWS Daily Summary

Daily Weather History Graph

Daily Weather History Graph

Search for Another Location

Airport or City:

Trip Planner

Search our weather history database for the weather conditions in past years. The results will help you decide how hot, cold, wet, or windy it might be!

Date:

Astronomy

Mar. 21, 2013 Rise Set
Actual Time 6:48 AM EDT 7:01 PM EDT
Civil Twilight 6:20 AM EDT 7:29 PM EDT
Nautical Twilight 5:47 AM EDT 8:02 PM EDT
Astronomical Twilight 5:14 AM EDT 8:35 PM EDT
Moon 1:22 PM EDT (3/21) 3:14 AM EDT (3/21)
Length of Visible Light 13h 08m
Length of Day
12h 12m
Waxing Gibbous, 68% of the Moon is Illuminated
Mar 21
Waxing Gibbous
Mar 27
Full
Apr 3
Last Quarter
Apr 10
New
Apr 18
First Quarter

Hourly Weather History & Observations

Time (EDT) Temp. Windchill Dew Point Humidity Pressure Visibility Wind Dir Wind Speed Gust Speed Precip Events Conditions
12:54 AM 24.1 °F 17.0 °F 15.1 °F 69% 29.81 in 10.0 mi West 5.8 mph - N/A   Clear
1:54 AM 24.8 °F 16.9 °F 15.8 °F 69% 29.77 in 10.0 mi WSW 6.9 mph - N/A   Clear
2:54 AM 23.0 °F 13.9 °F 15.1 °F 72% 29.80 in 10.0 mi West 8.1 mph - N/A   Clear
3:54 AM 23.0 °F 13.9 °F 15.1 °F 72% 29.78 in 10.0 mi West 8.1 mph - N/A   Clear
4:54 AM 23.0 °F 13.1 °F 14.0 °F 68% 29.77 in 10.0 mi West 9.2 mph - N/A   Mostly Cloudy
5:54 AM 24.1 °F 14.4 °F 15.1 °F 69% 29.76 in 10.0 mi West 9.2 mph - N/A   Overcast
6:54 AM 23.0 °F 13.9 °F 15.1 °F 72% 29.77 in 10.0 mi WNW 8.1 mph - N/A   Overcast
7:54 AM 24.1 °F 16.0 °F 14.0 °F 65% 29.77 in 10.0 mi NW 6.9 mph - N/A   Mostly Cloudy
8:54 AM 25.0 °F 14.8 °F 12.9 °F 60% 29.76 in 10.0 mi NW 10.4 mph - N/A   Overcast
9:54 AM 27.0 °F 17.3 °F 10.9 °F 51% 29.75 in 10.0 mi NW 10.4 mph - N/A   Overcast
10:54 AM 28.0 °F 24.2 °F 12.0 °F 51% 29.74 in 10.0 mi SW 3.5 mph - N/A   Overcast
11:54 AM 28.9 °F 23.9 °F 10.9 °F 47% 29.72 in 10.0 mi SSW 4.6 mph - N/A   Overcast
12:54 PM 30.0 °F 25.2 °F 12.0 °F 47% 29.70 in 10.0 mi SW 4.6 mph - 0.00 in   Overcast
1:54 PM 32.0 °F - 12.0 °F 44% 29.67 in 10.0 mi Calm Calm - N/A   Overcast
2:54 PM 32.0 °F 24.8 °F 16.0 °F 52% 29.63 in 10.0 mi SE 8.1 mph - N/A   Overcast
3:54 PM 33.1 °F - 14.0 °F 46% 29.62 in 10.0 mi Calm Calm - N/A   Overcast
4:54 PM 30.9 °F - 19.0 °F 61% 29.62 in 9.0 mi Calm Calm - 0.00 in   Overcast
5:07 PM 30.9 °F - 19.9 °F 64% 29.58 in 9.0 mi North - - N/A   Overcast
5:27 PM 30.0 °F 25.2 °F 21.0 °F 69% 29.58 in 7.0 mi NW 4.6 mph - 0.00 in Snow Light Snow
5:41 PM 30.0 °F 25.2 °F 21.9 °F 72% 29.58 in 1.8 mi WNW 4.6 mph - 0.00 in Snow Light Snow
5:47 PM 30.0 °F 26.5 °F 21.9 °F 72% 29.58 in 3.0 mi WNW 3.5 mph - 0.00 in Snow Light Snow
5:54 PM 30.0 °F 26.5 °F 21.9 °F 72% 29.62 in 9.0 mi NW 3.5 mph - 0.00 in Snow Light Snow
6:17 PM 28.9 °F - 23.0 °F 78% 29.57 in 5.0 mi Calm Calm - 0.00 in Snow Light Snow
6:54 PM 28.9 °F 23.9 °F 23.0 °F 78% 29.62 in 10.0 mi South 4.6 mph - 0.00 in   Overcast
7:54 PM 28.0 °F 22.8 °F 25.0 °F 88% 29.62 in 10.0 mi SW 4.6 mph - N/A   Overcast
8:54 PM 28.0 °F 20.8 °F 23.0 °F 81% 29.62 in 10.0 mi West 6.9 mph - N/A   Overcast
9:54 PM 28.9 °F 19.8 °F 10.9 °F 47% 29.62 in 10.0 mi NW 10.4 mph - N/A   Overcast
10:54 PM 28.0 °F 17.5 °F 12.0 °F 51% 29.62 in 10.0 mi WNW 12.7 mph - N/A   Overcast
11:54 PM 27.0 °F 15.6 °F 12.9 °F 56% 29.62 in 10.0 mi NW 13.8 mph - N/A   Overcast